HORIZONS 2

Last updated on Nov. 18, 2019, 4:21 a.m. UTC

1 32388U 07063B   19320.92631251 -.00000174  00000-0  00000-0 0  9997
2 32388   0.0127 327.1871 0002942 276.5421 230.3290  1.00271661 43751
UTC
Height (km)
Latitude
Longitude
Inclination
Orbital Period
UTC large
Height (km)
Speed (km/s)
/
Latitude / Longitude
Inclination (degrees)
Orbital Period (minutes)
Azimuth
Elevation
Range (km)
Doppler Factor
iOS Compass Heading
iOS Angle

Next 30 passes for location: Hong Kong

Rise time Rise Azimuth (degrees) Set time Set Azimuth (degrees) Duration Max altitude (degrees)

No matching passes for this satellites